IRNSS-1F

Last updated on Sept. 30, 2020, 5:50 a.m. UTC

1 41384U 16015A   20273.92933688  .00000141  00000-0  00000-0 0  9991
2 41384   2.0685 210.4053 0018777 185.1635 340.5820  1.00275232 16772
UTC
Height (km)
Latitude
Longitude
Inclination
Orbital Period
UTC large
Height (km)
Speed (km/s)
/
Latitude / Longitude
Inclination (degrees)
Orbital Period (minutes)
Azimuth
Elevation
Range (km)
Doppler Factor
iOS Compass Heading
iOS Angle

Next 30 passes for location: Hong Kong

Rise time Rise Azimuth (degrees) Set time Set Azimuth (degrees) Duration Max altitude (degrees)

No matching passes for this satellites